Marshfield, WI

12:41 AM CDT on July 28, 2017 (GMT -0500)
Marshfield Municipal

Weather History for KMFI - December, 2013

Change the Weather History Date:

Thursday, December 5, 2013

  Actual Average Record
Temperature  
Mean Temperature 16 °F -  
Max Temperature 28 °F 32 °F 62 °F (2001)
Min Temperature 1 °F 14 °F -7 °F (1991)
Degree Days  
Heating Degree Days 50    
Moisture  
Dew Point 5 °F    
Average Humidity 73    
Maximum Humidity 81    
Minimum Humidity 62    
Precipitation  
Precipitation 0.00 in - - ()
Sea Level Pressure  
Sea Level Pressure 29.96 in    
Wind  
Wind Speed 17 mph (West)    
Max Wind Speed 22 mph    
Max Gust Speed 31 mph    
Visibility 9 miles    
Events Snow    
Averages and records for this station are not official NWS values.
T = Trace of Precipitation, MM = Missing Value Source: NWS Daily Summary

Daily Weather History Graph

Daily Weather History Graph

Search for Another Location

Airport or City:

Trip Planner

Search our weather history database for the weather conditions in past years. The results will help you decide how hot, cold, wet, or windy it might be!

Date:

Astronomy

Dec. 05, 2013 Rise Set
Actual Time 7:22 AM CST 4:20 PM CST
Civil Twilight 6:49 AM CST 4:53 PM CST
Nautical Twilight 6:12 AM CST 5:30 PM CST
Astronomical Twilight 5:37 AM CST 6:05 PM CST
Moon 9:39 AM CST (12/5) 7:45 PM CST (12/5)
Length of Visible Light 10h 04m
Length of Day
8h 58m
Waxing Crescent, 11% of the Moon is Illuminated
Dec 5
Waxing Crescent
Dec 9
First Quarter
Dec 17
Full
Dec 25
Last Quarter
Jan 1
New

Hourly Weather History & Observations

Time (CST) Temp. Windchill Dew Point Humidity Pressure Visibility Wind Dir Wind Speed Gust Speed Precip Events Conditions
12:11 AM 28.4 °F 15.4 °F 23.0 °F 80% 29.53 in 10.0 mi West 19.6 mph 28.8 mph N/A   Overcast
12:54 AM 28.0 °F 15.7 °F 23.0 °F 81% 29.60 in 10.0 mi West 17.3 mph 26.5 mph N/A   Overcast
1:54 AM 24.1 °F 10.1 °F 19.0 °F 81% 29.65 in 10.0 mi WSW 18.4 mph 28.8 mph N/A   Overcast
2:54 AM 21.0 °F 7.1 °F 15.1 °F 78% 29.65 in 10.0 mi West 16.1 mph 29.9 mph N/A   Overcast
3:54 AM 18.0 °F 1.3 °F 12.0 °F 78% 29.71 in 7.0 mi WSW 20.7 mph 29.9 mph 0.00 in Snow Light Snow
4:21 AM 17.6 °F 3.2 °F 10.4 °F 73% 29.68 in 8.0 mi West 15.0 mph 28.8 mph 0.00 in Snow Light Snow
4:54 AM 16.0 °F -1.7 °F 9.0 °F 74% 29.75 in 9.0 mi West 21.9 mph 31.1 mph 0.00 in Snow Light Snow
5:54 AM 14.0 °F -1.4 °F 8.1 °F 77% 29.81 in 3.0 mi West 15.0 mph 25.3 mph 0.00 in Snow Light Snow
6:54 AM 12.0 °F -5.6 °F 5.0 °F 73% 29.85 in 7.0 mi West 18.4 mph 27.6 mph 0.00 in Snow Light Snow
7:54 AM 10.0 °F -8.1 °F 3.0 °F 73% 29.89 in 10.0 mi West 18.4 mph 26.5 mph 0.00 in   Overcast
8:54 AM 10.0 °F -5.9 °F 1.9 °F 70% 29.92 in 8.0 mi West 13.8 mph 26.5 mph N/A   Overcast
9:54 AM 10.0 °F -7.6 °F 1.9 °F 70% 29.96 in 7.0 mi West 17.3 mph 28.8 mph N/A   Overcast
10:54 AM 10.9 °F -7.9 °F 3.0 °F 70% 29.99 in 10.0 mi West 20.7 mph 27.6 mph N/A   Overcast
11:39 AM 10.4 °F -7.2 °F 1.4 °F 67% 29.92 in 10.0 mi West 17.3 mph 25.3 mph N/A   Scattered Clouds
11:54 AM 10.9 °F -7.0 °F 1.9 °F 67% 29.99 in 10.0 mi West 18.4 mph 25.3 mph N/A   Partly Cloudy
12:54 PM 12.9 °F -3.4 °F 3.0 °F 65% 30.00 in 10.0 mi West 16.1 mph 23.0 mph N/A   Clear
1:54 PM 12.9 °F -3.9 °F 1.9 °F 62% 30.03 in 10.0 mi West 17.3 mph 25.3 mph N/A   Clear
2:54 PM 12.9 °F -2.8 °F 1.9 °F 62% 30.04 in 10.0 mi WNW 15.0 mph 25.3 mph N/A   Clear
3:54 PM 10.9 °F -2.6 °F 1.0 °F 64% 30.08 in 10.0 mi West 10.4 mph 20.7 mph N/A   Clear
4:54 PM 9.0 °F -6.6 °F -0.0 °F 67% 30.10 in 10.0 mi West 12.7 mph - N/A   Clear
5:54 PM 8.1 °F -8.4 °F -0.0 °F 70% 30.14 in 10.0 mi West 13.8 mph 19.6 mph N/A   Clear
6:54 PM 7.0 °F -9.1 °F -0.9 °F 70% 30.21 in 10.0 mi West 12.7 mph - N/A   Clear
7:54 PM 6.1 °F -6.8 °F -0.9 °F 73% 30.24 in 10.0 mi West 8.1 mph - N/A   Clear
8:54 PM 5.0 °F -10.8 °F -0.9 °F 76% 30.26 in 10.0 mi West 11.5 mph 18.4 mph N/A   Partly Cloudy
9:54 PM 3.9 °F -12.2 °F -2.0 °F 76% 30.27 in 9.0 mi West 11.5 mph - N/A   Mostly Cloudy
10:30 PM 3.2 °F -13.1 °F -2.2 °F 78% 30.17 in 9.0 mi WNW 11.5 mph - N/A   Scattered Clouds
10:54 PM 3.0 °F -11.5 °F -2.0 °F 80% 30.27 in 9.0 mi West 9.2 mph - N/A   Clear
11:54 PM 1.9 °F -13.8 °F -2.9 °F 80% 30.31 in 10.0 mi West 10.4 mph - N/A   Clear